Radiation Dose at Monitoring Post of Fukushima Daini Nuclear Power Station
Date,Time,MP-1(microSv/h),MP-2(microSv/h),MP-3(microSv/h),MP-4(microSv/h),MP-5(microSv/h),MP-6(microSv/h),MP-7(microSv/h),Wind Direction,Wind Velocity(m/s),Rain
2017/05/14,00:00,0.365,0.225,0.382,0.352,0.328,0.188,0.162,northeast,9.7,Yes
2017/05/14,00:10,0.366,0.227,0.382,0.353,0.325,0.190,0.163,northeast,10.1,Yes
2017/05/14,00:20,0.367,0.230,0.382,0.353,0.329,0.192,0.164,north-northeast,9.8,Yes
2017/05/14,00:30,0.367,0.231,0.386,0.354,0.330,0.193,0.166,northeast,8.8,Yes
2017/05/14,00:40,0.369,0.232,0.383,0.354,0.331,0.192,0.165,north-northeast,8.6,Yes
2017/05/14,00:50,0.367,0.230,0.385,0.356,0.332,0.193,0.164,north-northeast,8.5,Yes
2017/05/14,01:00,0.367,0.229,0.386,0.353,0.328,0.192,0.165,north-northeast,9.8,Yes
2017/05/14,01:10,0.368,0.230,0.383,0.354,0.331,0.191,0.164,north-northeast,9.2,Yes
2017/05/14,01:20,0.367,0.229,0.383,0.353,0.327,0.191,0.165,north-northeast,10.2,Yes
2017/05/14,01:30,0.370,0.228,0.382,0.351,0.330,0.192,0.166,north-northeast,11.5,Yes
2017/05/14,01:40,0.365,0.230,0.384,0.353,0.327,0.192,0.166,north-northeast,11.8,Yes
2017/05/14,01:50,0.368,0.229,0.382,0.351,0.328,0.191,0.166,north-northeast,9.0,Yes
2017/05/14,02:00,0.366,0.227,0.379,0.353,0.328,0.190,0.164,north-northeast,11.3,Yes
2017/05/14,02:10,0.368,0.230,0.382,0.350,0.326,0.189,0.164,north,9.2,Yes
2017/05/14,02:20,0.367,0.227,0.379,0.351,0.328,0.189,0.163,north,8.9,Yes
2017/05/14,02:30,0.366,0.227,0.379,0.350,0.325,0.189,0.163,north-northeast,9.5,Yes
2017/05/14,02:40,0.367,0.226,0.378,0.349,0.327,0.188,0.162,north-northeast,9.3,Yes
2017/05/14,02:50,0.366,0.226,0.378,0.352,0.325,0.188,0.163,north,9.8,Yes
2017/05/14,03:00,0.367,0.227,0.379,0.348,0.325,0.188,0.162,north-northeast,8.6,Yes
2017/05/14,03:10,0.366,0.227,0.378,0.350,0.326,0.188,0.162,north,7.3,Yes
2017/05/14,03:20,0.366,0.225,0.379,0.348,0.324,0.188,0.161,north-northeast,8.9,Yes
2017/05/14,03:30,0.365,0.225,0.377,0.349,0.324,0.186,0.162,north,7.8,Yes
2017/05/14,03:40,0.364,0.224,0.377,0.347,0.323,0.185,0.160,north,8.7,Yes
2017/05/14,03:50,0.364,0.224,0.377,0.348,0.324,0.183,0.160,north,7.6,Yes
2017/05/14,04:00,0.362,0.223,0.376,0.348,0.322,0.183,0.159,north,7.6,Yes
2017/05/14,04:10,0.365,0.222,0.375,0.345,0.322,0.183,0.158,north,7.7,Yes
2017/05/14,04:20,0.362,0.220,0.375,0.347,0.321,0.183,0.158,north,9.3,Yes
2017/05/14,04:30,0.362,0.223,0.374,0.345,0.320,0.182,0.158,north,9.2,Yes
2017/05/14,04:40,0.360,0.219,0.376,0.345,0.322,0.182,0.158,north,9.6,Yes
2017/05/14,04:50,0.360,0.221,0.372,0.344,0.319,0.182,0.158,north,8.9,Yes
2017/05/14,05:00,0.362,0.223,0.374,0.345,0.321,0.182,0.158,north,9.0,Yes
2017/05/14,05:10,0.361,0.222,0.376,0.345,0.322,0.182,0.159,north,7.6,Yes
2017/05/14,05:20,0.362,0.222,0.374,0.344,0.321,0.184,0.159,north,7.6,Yes
2017/05/14,05:30,0.363,0.222,0.375,0.346,0.322,0.184,0.159,north,9.8,Yes
2017/05/14,05:40,0.363,0.223,0.372,0.344,0.321,0.185,0.161,north-northwest,10.2,Yes
2017/05/14,05:50,0.363,0.222,0.375,0.344,0.323,0.184,0.160,north-northwest,9.7,Yes
2017/05/14,06:00,0.360,0.222,0.373,0.345,0.320,0.184,0.159,north-northwest,10.4,Yes
2017/05/14,06:10,0.362,0.222,0.373,0.343,0.322,0.184,0.161,north-northwest,10.8,Yes
2017/05/14,06:20,0.361,0.222,0.375,0.344,0.321,0.183,0.159,north,11.0,Yes
2017/05/14,06:30,0.361,0.222,0.375,0.342,0.320,0.182,0.159,north,11.8,Yes
2017/05/14,06:40,0.361,0.221,0.372,0.345,0.322,0.183,0.159,north,9.8,Yes
2017/05/14,06:50,0.360,0.222,0.374,0.342,0.319,0.182,0.159,north,8.6,Yes
2017/05/14,07:00,0.363,0.221,0.372,0.344,0.321,0.182,0.157,north,9.2,Yes
2017/05/14,07:10,0.360,0.220,0.375,0.343,0.320,0.182,0.158,north,9.8,Yes
2017/05/14,07:20,0.361,0.222,0.373,0.342,0.318,0.181,0.158,north,10.3,Yes
2017/05/14,07:30,0.359,0.220,0.371,0.344,0.322,0.182,0.157,north,9.2,Yes
2017/05/14,07:40,0.360,0.219,0.374,0.341,0.318,0.181,0.156,north,8.8,Yes
2017/05/14,07:50,0.362,0.220,0.373,0.345,0.321,0.181,0.157,north,8.1,Yes
2017/05/14,08:00,0.361,0.220,0.374,0.342,0.319,0.180,0.157,north,9.0,Yes
2017/05/14,08:10,0.361,0.220,0.374,0.344,0.320,0.180,0.156,north,8.5,Yes
2017/05/14,08:20,0.360,0.220,0.372,0.343,0.321,0.181,0.157,north,9.2,Yes
2017/05/14,08:30,0.360,0.220,0.374,0.343,0.319,0.181,0.155,north,8.8,Yes
2017/05/14,08:40,0.360,0.219,0.371,0.344,0.321,0.182,0.156,north,10.2,Yes
2017/05/14,08:50,0.360,0.219,0.374,0.342,0.317,0.182,0.156,north,9.5,Yes
2017/05/14,09:00,0.361,0.218,0.374,0.345,0.320,0.180,0.156,north,11.0,Yes
2017/05/14,09:10,0.358,0.219,0.373,0.342,0.319,0.181,0.158,north,9.1,Yes
2017/05/14,09:20,0.361,0.219,0.373,0.344,0.318,0.180,0.156,north,8.4,Yes
2017/05/14,09:30,0.359,0.220,0.371,0.342,0.320,0.180,0.157,north,7.4,Yes
2017/05/14,09:40,0.360,0.221,0.373,0.344,0.318,0.181,0.156,north,7.8,Yes
2017/05/14,09:50,0.361,0.221,0.371,0.341,0.320,0.181,0.156,north,7.3,Yes
2017/05/14,10:00,0.361,0.221,0.373,0.345,0.318,0.180,0.157,north,8.7,Yes
2017/05/14,10:10,0.362,0.220,0.373,0.343,0.321,0.182,0.157,north,6.2,Yes
2017/05/14,10:20,0.359,0.220,0.374,0.342,0.318,0.181,0.158,north,8.3,Yes
2017/05/14,10:30,0.360,0.220,0.372,0.343,0.320,0.182,0.157,north,7.0,Yes
2017/05/14,10:40,0.360,0.221,0.371,0.343,0.317,0.182,0.157,north,8.4,Yes
2017/05/14,10:50,0.361,0.221,0.373,0.344,0.320,0.181,0.157,north,8.8,Yes
2017/05/14,11:00,0.360,0.220,0.372,0.342,0.319,0.181,0.156,north,8.5,Yes
2017/05/14,11:10,0.359,0.219,0.373,0.343,0.319,0.181,0.157,north,8.9,Yes
2017/05/14,11:20,0.361,0.219,0.373,0.342,0.320,0.181,0.155,north-northeast,7.5,Yes
2017/05/14,11:30,0.361,0.219,0.371,0.343,0.317,0.181,0.156,north,8.4,Yes
2017/05/14,11:40,0.361,0.218,0.373,0.343,0.320,0.181,0.155,north,9.0,Yes
2017/05/14,11:50,0.359,0.218,0.371,0.343,0.318,0.181,0.155,north,9.2,Yes
2017/05/14,12:00,0.361,0.218,0.374,0.342,0.318,0.181,0.155,north,8.2,Yes
2017/05/14,12:10,0.359,0.218,0.371,0.343,0.319,0.180,0.155,north,7.2,Yes
2017/05/14,12:20,0.360,0.218,0.372,0.345,0.318,0.179,0.156,north,6.7,Yes
2017/05/14,12:30,0.360,0.218,0.373,0.342,0.318,0.179,0.155,north,6.2,Yes
2017/05/14,12:40,0.359,0.219,0.371,0.344,0.317,0.180,0.155,north,8.6,Yes
2017/05/14,12:50,0.361,0.218,0.374,0.342,0.320,0.180,0.154,north,7.4,Yes
2017/05/14,13:00,0.358,0.218,0.372,0.345,0.317,0.180,0.155,north,7.0,Yes
2017/05/14,13:10,0.362,0.219,0.373,0.342,0.320,0.180,0.156,north,9.3,Yes
2017/05/14,13:20,0.361,0.218,0.373,0.344,0.318,0.180,0.156,north,7.2,Yes
2017/05/14,13:30,0.361,0.218,0.372,0.343,0.320,0.181,0.156,north,8.6,Yes
2017/05/14,13:40,0.363,0.219,0.375,0.344,0.320,0.180,0.156,north,7.8,Yes
2017/05/14,13:50,0.361,0.218,0.374,0.344,0.319,0.180,0.157,north,8.1,Yes
2017/05/14,14:00,0.363,0.218,0.374,0.342,0.320,0.181,0.157,north,7.6,Yes
2017/05/14,14:10,0.362,0.220,0.374,0.344,0.318,0.183,0.157,north,6.6,Yes
2017/05/14,14:20,0.361,0.220,0.374,0.343,0.319,0.182,0.157,north,8.6,Yes
2017/05/14,14:30,0.361,0.219,0.373,0.344,0.319,0.182,0.155,north,8.5,Yes
2017/05/14,14:40,0.361,0.220,0.374,0.343,0.319,0.182,0.156,north,7.4,Yes
2017/05/14,14:50,0.363,0.220,0.374,0.344,0.321,0.181,0.156,north,8.0,Yes
2017/05/14,15:00,0.360,0.221,0.372,0.344,0.319,0.181,0.155,north,7.7,Yes
2017/05/14,15:10,0.362,0.220,0.373,0.342,0.320,0.181,0.155,north,7.3,Yes
2017/05/14,15:20,0.361,0.218,0.374,0.346,0.319,0.181,0.155,north,6.7,Yes
2017/05/14,15:30,0.361,0.221,0.374,0.343,0.319,0.181,0.156,north,7.7,Yes
2017/05/14,15:40,0.361,0.219,0.372,0.344,0.319,0.181,0.156,north,8.0,Yes
2017/05/14,15:50,0.360,0.219,0.373,0.344,0.318,0.181,0.155,north,8.1,Yes
2017/05/14,16:00,0.359,0.220,0.374,0.342,0.321,0.182,0.156,north,6.9,Yes
2017/05/14,16:10,0.361,0.219,0.374,0.345,0.318,0.182,0.156,north,7.5,Yes
2017/05/14,16:20,0.361,0.219,0.373,0.343,0.320,0.181,0.155,north,7.9,Yes
2017/05/14,16:30,0.362,0.220,0.372,0.345,0.321,0.181,0.156,north,7.1,Yes
2017/05/14,16:40,0.359,0.219,0.373,0.343,0.318,0.182,0.156,north,7.7,Yes
2017/05/14,16:50,0.360,0.219,0.372,0.343,0.320,0.181,0.155,north,9.2,Yes
2017/05/14,17:00,0.360,0.219,0.371,0.343,0.317,0.180,0.156,north,8.4,Yes
2017/05/14,17:10,0.360,0.218,0.373,0.342,0.319,0.181,0.155,north,8.6,Yes
2017/05/14,17:20,0.361,0.219,0.370,0.342,0.318,0.181,0.155,north,8.5,Yes
2017/05/14,17:30,0.360,0.219,0.371,0.340,0.317,0.180,0.155,north,8.9,Yes
2017/05/14,17:40,0.360,0.218,0.371,0.343,0.319,0.181,0.155,north,8.5,Yes
2017/05/14,17:50,0.360,0.218,0.370,0.344,0.318,0.180,0.155,north,8.3,Yes
2017/05/14,18:00,0.358,0.218,0.374,0.341,0.318,0.179,0.156,north-northwest,6.8,Yes
2017/05/14,18:10,0.359,0.219,0.372,0.342,0.319,0.182,0.154,north,7.8,Yes
2017/05/14,18:20,0.359,0.218,0.371,0.342,0.318,0.180,0.155,north,7.4,Yes
2017/05/14,18:30,0.359,0.218,0.371,0.341,0.318,0.180,0.154,north,7.2,Yes
2017/05/14,18:40,0.360,0.220,0.370,0.342,0.317,0.180,0.154,north,6.7,Yes
2017/05/14,18:50,0.359,0.218,0.372,0.341,0.318,0.181,0.155,north,7.9,Yes
2017/05/14,19:00,0.360,0.217,0.371,0.342,0.317,0.181,0.155,north-northwest,7.8,Yes
2017/05/14,19:10,0.358,0.218,0.371,0.341,0.317,0.180,0.155,north-northwest,6.3,Yes
2017/05/14,19:20,0.359,0.217,0.373,0.343,0.319,0.181,0.155,north-northwest,6.3,Yes
2017/05/14,19:30,0.360,0.218,0.370,0.341,0.317,0.181,0.154,north-northwest,7.0,Yes
2017/05/14,19:40,0.359,0.218,0.370,0.340,0.316,0.180,0.156,north-northwest,7.1,Yes
2017/05/14,19:50,0.358,0.218,0.370,0.343,0.318,0.181,0.154,north-northwest,7.9,Yes
2017/05/14,20:00,0.360,0.218,0.370,0.341,0.317,0.181,0.155,north-northwest,7.5,Yes
2017/05/14,20:10,0.358,0.217,0.371,0.344,0.318,0.180,0.155,north-northwest,8.1,Yes
2017/05/14,20:20,0.358,0.217,0.371,0.341,0.317,0.181,0.155,north-northwest,9.0,Yes
2017/05/14,20:30,0.357,0.218,0.370,0.341,0.317,0.181,0.154,north-northwest,8.6,Yes
2017/05/14,20:40,0.358,0.218,0.372,0.342,0.318,0.181,0.154,north,8.1,Yes
2017/05/14,20:50,0.358,0.218,0.370,0.342,0.317,0.181,0.155,north-northwest,7.8,Yes
2017/05/14,21:00,0.358,0.218,0.371,0.342,0.318,0.180,0.154,north-northwest,7.9,Yes
2017/05/14,21:10,0.360,0.218,0.372,0.340,0.317,0.180,0.154,north-northwest,7.0,Yes
2017/05/14,21:20,0.359,0.217,0.369,0.342,0.316,0.181,0.154,north-northwest,7.4,Yes
2017/05/14,21:30,0.358,0.217,0.371,0.342,0.319,0.181,0.155,north,6.9,Yes
2017/05/14,21:40,0.360,0.217,0.372,0.340,0.317,0.180,0.154,north,6.9,Yes
2017/05/14,21:50,0.359,0.217,0.369,0.343,0.319,0.180,0.154,north-northwest,6.9,Yes
2017/05/14,22:00,0.358,0.218,0.372,0.339,0.320,0.180,0.155,north-northwest,6.2,Yes
2017/05/14,22:10,0.360,0.217,0.372,0.341,0.317,0.180,0.154,north-northwest,7.0,Yes
2017/05/14,22:20,0.359,0.217,0.371,0.342,0.320,0.181,0.154,north-northwest,6.5,No
2017/05/14,22:30,0.360,0.217,0.372,0.341,0.317,0.180,0.154,north-northwest,6.1,Yes
2017/05/14,22:40,0.357,0.219,0.370,0.342,0.319,0.180,0.153,north-northwest,7.4,Yes
2017/05/14,22:50,0.359,0.216,0.372,0.343,0.317,0.180,0.155,north-northwest,6.6,No
2017/05/14,23:00,0.360,0.217,0.372,0.344,0.317,0.180,0.154,north-northwest,6.8,Yes
2017/05/14,23:10,0.357,0.218,0.371,0.342,0.318,0.180,0.154,north,7.3,Yes
2017/05/14,23:20,0.361,0.218,0.373,0.342,0.317,0.180,0.154,north-northwest,6.3,Yes
2017/05/14,23:30,0.359,0.218,0.370,0.343,0.319,0.180,0.154,north-northwest,6.4,Yes
2017/05/14,23:40,0.359,0.216,0.371,0.342,0.318,0.181,0.153,north,7.0,Yes
2017/05/14,23:50,0.359,0.217,0.372,0.344,0.317,0.180,0.153,north,7.0,Yes
